Regional Weather Roundup
Issued by NWS

Home | Current Version | Previous Version | Text Only | Print | Product List | Glossary On
Versions: 1 2 3 4 5 6 7 8 9 10 11 12 13 14 15 16 17 18 19 20 21 22 23 24 25 26 27 28 29 30 31 32 33 34 35 36 37 38 39 40 41 42 43 44 45 46 47 48 49 50
000
ASUS42 KKEY 280310
RWRKEY

FLORIDA REGIONAL WEATHER ROUNDUP FOR THE FLORIDA KEYS
NATIONAL WEATHER SERVICE KEY WEST FLORIDA
1100 PM EDT WED MAY 27 2015

...SOUTH FLORIDA AND THE KEYS...

CITY           SKY/WX    TMP DP  RH WIND       PRES   REMARKS
FORT MYERS     CLEAR     78  66  66 E8        30.10R
SW REGIONAL AP CLEAR     76  65  68 E10       30.11R
NAPLES         CLEAR     79  65  62 E15       30.09R
MIAMI          MOCLDY    79  67  66 NE14      30.11R
WEST KENDALL   CLOUDY    76  72  87 NE7       30.10S
HOMESTEAD      PTCLDY    80  67  65 E13       30.09S
MARATHON       CLEAR     81  69  67 E13       30.07S
BOCA CHICA NAS PTCLDY    80  68  66 E15       30.07S
KEY WEST INTL  PTCLDY    80  69  69 E10G20    30.07S

...INTERNATIONAL WEATHER...

CITY           SKY/WX    TMP DP  RH WIND       PRES   REMARKS
NASSAU BAHAMAS NOT AVBL
CANCUN MEXICO  MOCLDY    82  73  74 E6        30.01S
COZUMEL MEXICO PTCLDY    75  73  94 CALM      30.01R

ADJACENT COASTAL WATERS...

STATION/POSITION TIME  SKY/WX   TEMP    WIND        PRES    WAVE
                                AIR SEA DIR/SP/G            HT/PER
                 (UTC)          (F)     (DEG/KT/KT) (MB)    (FT/S)
PULASKI SHOAL LI 0200            79      30/ 20/ 22 1017.8R
SAND KEY         0250            81      90/ 18/ 21 1018.0R
SOMBRERO KEY     0300            80      80/ 20/ 22 1018.2F
LONG KEY         0200            81 83   90/ 17/ 19 1019.1R
MOLASSES REEF    0200            80 82   90/ 18/ 20 1018.3R
FOWEY ROCKS      NOT AVBL

$$



USA.gov is the U.S. government's official web portal to all federal, state and local government web resources and services.